Погода Мыс Стерлегова

Погода Мыс Стерлегова : погода сейчас, прогноз погоды и архив. Всё, что Вы хотите узнать о погоде Мыс Стерлегова!

Поиск расширенной информации на нашем сайте:

Другие новости

Новости СМИ2

Главная страница сайта

Новости сайта

03.07.2017

Напоминаем, что на нашем специализированном сайте Метеоцентр.Азия вы можете получить высокодетализированные автоматические прогнозы погоды по пунктам России, СНГ и мира в авиационном формате (включающие направление и скорость ветра, видимость, явления погоды, количество и форму облачности, нижнюю и верхнюю границу облачности).


Погода Мыс Стерлегова - сегодня

Время (UTC), дата Ветер
(°,м/с) 
Видим.   Явления Облачность Т
(°С)
Тd
(°С)
f(%) Тe
(°С)
Pmin
(гПа)
dP
(гПа)
Po
(мм)
O2
(г/м3)
Тmin Tmax R s Состояние
почвы
15 15.09.17 070 (В) 20000 м    1/0 верхняя 
[Ci fib]
-0.5 -2.7 85 -2  1014  0.7  760  307           
18 15.09.17 050 (СВ) 20000 м    1/0 верхняя 
[Ci fib]
-1.8 -3.6 87 -5  1014.5  0.5  760  309           
21 15.09.17 060 (СВ) 20000 м    1/1 600 м 
[Sc]
-3 -4.9 87 -6  1014.8  0.3  760  310           
03 16.09.17 070 (В) 20000 м    3/0 средняя, верхняя 
[Ac trans|Ci fib]
+0.3 -1.9 85 +1  1015.4  -0.1  761  306           
06 16.09.17 040 (СВ) 0500 м  туман  ?/?  
-1.5 -1.9 97 -5  1015.7  0.3  761  308           
09 16.09.17 040 (СВ) 20000 м  {туман}  3/0 верхняя 
[Ci fib]
+0.8 -0.8 89 -2  1016.1  0.4  761  306           
12 16.09.17 070 (В) 20000 м  {туман}  1/0 верхняя 
[Ci fib]
-0.7 -1.7 93 -3  1016.5  0.4  761  308    +1.8       
15 16.09.17 120 (ЮВ) 20000 м    1/0 верхняя 
[Ci fib]
-1.8 -2.9 92 -5  1017  0.5  762  309           
18 16.09.17 150 (ЮВ) 20000 м    1/0 верхняя 
[Ci fib]
-2.3 -3.3 93 -6  1017.5  0.5  762  310           
21 16.09.17 200 (Ю) 20000 м    1/0 верхняя 
[Ci fib]
-2.7 -3.5 94 -6  1017.9  0.4  762  311           
00 17.09.17 200 (Ю) 1000 м  дымка  10/10 100 м 
[St]
-3.7 -4.1 97 -7  1018.2  0.3  763  312  -4.6         
09 17.09.17 150 (ЮВ) 20000 м    10/10 420 м 
[Sc]
-0.8 -1.9 92 -3  1018.7  763  309           
12 17.09.17 180 (Ю) 20000 м    10/10 400 м 
[Sc]
-0.8 -2.5 88 -3  1018.6  0.1  763  309    -0.3  0.0     
15 17.09.17 180 (Ю) 20000 м    10/10 330 м 
[St]
-1.2 -2.5 91 -3  1018.7  0.1  763  309           
18 17.09.17 200 (Ю) 20000 м    10/10 330 м 
[St]
-1.6 -3.2 89 -4  1018.8  0.1  763  310           
21 17.09.17 220 (ЮЗ) 20000 м    10/10 300 м 
[St]
-2.1 -3.7 89 -4  1019.1  0.3  763  310           
00 18.09.17 180 (Ю) 20000 м    10/10 330 м 
[St]
-2.5 -4.1 89 -4  1019.3  0.2  764  311  -2.5         
12 18.09.17 290 (З) 20000 м  {ливн. осадки}  9/9 330 м 
[St]
-2.8 -4.4 89 -2  1020.8  0.1  765  312    -1.7  0.0     
15 18.09.17 180 (Ю) 20000 м    10/10 300 м 
[St]
-2.7 -4.2 89 -2  1021.5  0.7  765  312           
18 18.09.17 160 (Ю) 20000 м    10/10 330 м 
[St]
-3 -3.8 94 -3  1021.8  0.3  765  312           
21 18.09.17 180 (Ю) 20000 м    10/10 400 м 
[Sc]
-2.8 -3.4 96 -2  1021.7  -0.1  765  312           
00 19.09.17 190 (Ю) 20000 м  {ливн. осадки}  10/10 300 м 
[St]
-2.8 -3.3 96 -5  1021.7  765  312  -3.1    0.2  <0.5  равномерный
сухой снег
100% 
03 19.09.17 210 (ЮЗ) 20000 м    10/10 420 м 
[Sc]
-2.3 -2.9 96 -6  1021.2  -0.5  765  311           
06 19.09.17 220 (ЮЗ) 20000 м    10/10 450 м 
[Sc]
-1.1 -1.8 95 -5  1020.5  -0.7  764  309           
09 19.09.17 220 (ЮЗ) 8-11{11}  20000 м    10/10 570 м 
[Sc]
-0.7 -1.2 96 -5  1019.2  -1.3  763  309           
Время (UTC), дата Ветер
(°,м/с) 
Видим.   Явления Облачность Т
(°С)
Тd
(°С)
f(%) Тe
(°С)
Pmin
(гПа)
dP
(гПа)
Po
(мм)
O2
(г/м3)
Тmin Tmax R s Состояние
почвы

Для получения пояснительной информации подведите курсор к названию столбца.

ПОГОДА Мыс Стерлегова - архив

Всё, что Вы хотите узнать о погоде Мыс Стерлегова - удобно и подробно!

Выберите нужную дату (начиная с 1 января 2015* года) и нажмите кнопку "Найти".
Будут отображены архивные сводки погоды по пункту Мыс Стерлегова, начиная с указанной даты.


Отображать данные в формате CSV (для использования в таблицах Excel)


Внимание! Наш архив погоды предназначен исключительно для личного некоммерческого использования в познавательных целях. Если Вам необходимы официальные справки о состоянии погоды (для производственных, юридических, коммерческих и т.п. целей), обращайтесь в органы Росгидромета.

*Примечание: данная дата относится к архиву по метеостанциям СССР (Россия, СНГ, Балтия).
Архив по метеостанциям Зарубежной Европы и Азии (кроме Китая) хранится 10 дней, по другим регионам земного шара (Китай, Африка, Америка, Австралия, Океания) - 1 день.

Мыс Стерлегова - район местоположения метеостанции


Название, широта, долгота, высота метеостанции:
Мыс Стерлегова 75.4°ш. 88.8°д. 10 м над ур. моря [Российская Федерация]

Дополнительная информация

В oтличие oт бoльшинства пoгoдных сайтoв мы публикуем пoдрoбную метеoинфoрмацию в детальнoм прoфессиoнальнoм фoрмате.

Характеристики температуры и влажнoсти вoздуха измеряются на высoте 2 м в тени вдали oт зданий и деревьев.
Скoрoсть ветра измеряется на высoте 10 м (на урoвне рoста челoвека скoрoсть ветра ниже в 1.5-2 раза). Если метеoстанция нахoдится в гoрoде или в лесу, тo скoрoсть ветра занижена на 2-4 м/с пo сравнению с oткрытым местoм. Скoрoсть ветра над акватoриями крупных рек и oзёр, а также на вершинах хoлмoв на 2-5 м/с выше, чем в oбычных услoвиях.
Атмoсфернoе давление в разных тoчках местнoсти мoжет значительнo oтличаться oт давления на метеoстанции, в зависимoсти oт услoвий рельефа (при пoдъёме на 10 м давление пoнижается примернo на 1 мм рт.ст.).